Location: Unspecified
(0.0000°N, 0.0000°E)
Time: 16:49:29
(UTC+00:00)

Vanguard 3 - All Passes

Search period start: 22 February 2018 00:00
Search period end: 04 March 2018 00:00
Orbit: 508 x 3264 km, 33.3° (Epoch: 21 February)

Date Brightness Start Highest point End Pass type
(mag) Time Alt. Az. Time Alt. Az. Time Alt. Az.
22 Feb - 01:54:56 10° WSW 02:04:51 27° SSW 02:18:47 10° SSE visible
22 Feb - 04:15:44 10° SW 04:26:21 18° S 04:37:56 10° SSE visible
22 Feb - 06:35:33 10° SSW 06:49:37 23° SSE 07:01:40 10° ESE daylight
22 Feb - 08:52:12 10° SW 09:09:14 45° SSE 09:20:04 10° E daylight
22 Feb - 11:09:51 10° WSW 11:24:28 70° NW 11:32:26 10° NE daylight
22 Feb - 13:32:51 10° WNW 13:36:32 13° NW 13:39:34 10° NNW daylight
22 Feb - 20:20:02 10° NNE 20:21:49 11° NE 20:23:49 10° ENE night (unlit)
22 Feb - 22:26:51 10° NW 22:33:14 81° NE 22:45:05 10° ESE night (unlit)
23 Feb - 00:39:23 10° W 00:47:59 35° SSW 01:01:46 10° SE visible
23 Feb - 02:57:34 10° SW 03:07:15 19° S 03:19:07 10° SSE visible
23 Feb - 05:18:18 10° SSW 05:30:25 19° S 05:42:19 10° SE visible
23 Feb - 07:35:19 10° SW 07:52:00 34° SSE 08:04:22 10° E daylight
23 Feb - 09:52:04 10° SW 10:09:20 76° SE 10:19:10 10° ENE daylight
23 Feb - 12:11:59 10° W 12:22:38 32° NW 12:29:13 10° NNE daylight
23 Feb - 21:14:30 10° NNW 21:19:29 38° NE 21:27:40 10° ESE night (unlit)
23 Feb - 23:25:02 10° WNW 23:32:13 50° SSW 23:45:00 10° SE visible
24 Feb - 01:40:29 10° WSW 01:49:14 22° SSW 02:01:16 10° SSE visible
24 Feb - 04:00:50 10° SSW 04:10:52 17° S 04:21:57 10° SE visible
24 Feb - 06:18:41 10° SSW 06:33:47 26° SSE 06:46:54 10° ESE daylight
24 Feb - 08:34:50 10° SW 08:53:08 53° SSE 09:04:53 10° ENE daylight
24 Feb - 10:52:58 10° WSW 11:08:19 61° NW 11:16:57 10° NE daylight
24 Feb - 13:17:55 10° WNW 13:20:49 12° NW 13:23:20 10° NNW daylight
24 Feb - 20:03:43 10° NNE 20:06:09 13° NE 20:09:06 10° ENE visible
24 Feb - 22:11:38 10° WNW 22:17:30 82° SW 22:28:19 10° SE night (unlit)
25 Feb - 00:24:43 10° WSW 00:32:24 28° SSW 00:44:14 10° SSE visible
25 Feb - 02:43:19 10° SW 02:51:47 17° S 03:02:04 10° SSE visible
25 Feb - 05:02:12 10° SSW 05:14:45 20° SSE 05:27:21 10° SE visible
25 Feb - 07:18:06 10° SW 07:35:53 39° SSE 07:49:18 10° E daylight
25 Feb - 09:34:52 10° SW 09:53:06 87° SE 10:03:45 10° NE daylight
25 Feb - 11:55:46 10° W 12:06:36 29° NW 12:13:33 10° NNE daylight
25 Feb - 20:59:03 10° NW 21:03:45 47° NE 21:11:34 10° ESE night (unlit)
25 Feb - 23:10:09 10° W 23:16:39 39° SSW 23:27:44 10° SE night (unlit)
26 Feb - 01:26:19 10° SW 01:33:47 18° S 01:43:39 10° SSE visible
26 Feb - 03:45:46 10° SSW 03:55:23 16° S 04:06:08 10° SE visible
26 Feb - 06:01:51 10° SSW 06:17:46 29° SSE 06:31:56 10° ESE daylight
26 Feb - 08:17:33 10° SW 08:36:49 62° SSE 08:49:32 10° ENE daylight
26 Feb - 10:36:10 10° WSW 10:52:03 53° NW 11:01:22 10° NE daylight
26 Feb - 13:03:25 10° NW 13:05:07 10° NW 13:06:42 10° NNW daylight
26 Feb - 19:47:41 10° N 19:50:31 16° NE 19:54:04 10° E visible
26 Feb - 21:56:31 10° WNW 22:01:55 63° SSW 22:11:32 10° SE night (unlit)
27 Feb - 00:10:20 10° WSW 00:16:58 22° SSW 00:26:37 10° SSE visible
27 Feb - 02:29:10 10° SSW 02:36:25 15° S 02:45:02 10° SSE visible
27 Feb - 04:46:00 10° SSW 04:58:58 22° SSE 05:12:19 10° ESE visible
27 Feb - 07:00:57 10° SW 07:19:34 45° SSE 07:34:02 10° E daylight
27 Feb - 09:17:46 10° SW 09:36:42 83° NW 09:48:11 10° NE daylight
27 Feb - 11:39:38 10° W 11:50:33 26° NW 11:57:49 10° NNE daylight
27 Feb - 20:43:40 10° NW 20:48:07 60° NE 20:55:25 10° ESE visible
27 Feb - 22:55:27 10° W 23:01:15 29° SSW 23:10:27 10° SSE night (unlit)
28 Feb - 01:12:30 10° SW 01:18:26 15° S 01:25:53 10° SSE visible
28 Feb - 03:30:29 10° SSW 03:39:53 16° SSE 03:50:31 10° SE visible
28 Feb - 05:45:02 10° SSW 06:01:35 32° SSE 06:16:47 10° E visible
28 Feb - 08:00:23 10° SW 08:20:19 70° SE 08:34:00 10° ENE daylight
28 Feb - 10:19:27 10° WSW 10:35:42 48° NW 10:45:41 10° NNE daylight
28 Feb - 19:31:49 10° N 19:34:54 20° NE 19:38:50 10° E visible
28 Feb - 21:41:31 10° WNW 21:46:27 46° SSW 21:54:46 10° SE night (unlit)
28 Feb - 23:56:19 10° SW 00:01:39 17° SSW 00:08:50 10° SSE visible
01 Mar - 02:15:05 10° SSW 02:21:06 13° S 02:28:06 10° SSE visible
01 Mar - 04:29:44 10° SSW 04:43:04 23° SSE 04:57:11 10° ESE visible
01 Mar - 06:43:56 10° SW 07:03:04 51° SSE 07:18:34 10° ENE daylight
01 Mar - 09:00:45 10° WSW 09:20:08 75° NW 09:32:30 10° NE daylight
01 Mar - 11:23:36 10° W 11:34:29 24° NW 11:42:01 10° N daylight
01 Mar - 20:28:23 10° NW 20:32:35 82° NE 20:39:16 10° ESE visible
01 Mar - 22:41:02 10° WSW 22:45:56 22° SSW 22:53:05 10° SSE night (unlit)
02 Mar - 00:59:20 10° SSW 01:03:12 12° S 01:07:42 10° SSE visible
02 Mar - 03:15:01 10° SSW 03:24:19 17° SSE 03:35:01 10° SE visible
02 Mar - 05:28:19 10° SSW 05:45:13 36° SSE 06:01:23 10° E visible
02 Mar - 07:43:21 10° SW 08:03:39 79° SE 08:18:19 10° ENE daylight
02 Mar - 10:02:50 10° WSW 10:19:18 43° NW 10:29:54 10° NNE daylight
02 Mar - 19:16:05 10° NNW 19:19:21 27° NE 19:23:30 10° E visible
02 Mar - 21:26:43 10° W 21:31:07 33° SSW 21:37:58 10° SE night (unlit)
02 Mar - 23:42:59 10° SSW 23:46:26 12° S 23:50:35 10° SSE visible
03 Mar - 02:01:00 10° S 02:05:49 12° S 02:11:16 10° SSE visible
03 Mar - 04:13:26 10° SSW 04:27:00 26° SSE 04:41:53 10° ESE visible
03 Mar - 06:27:02 10° SW 06:46:24 57° SE 07:02:54 10° ENE daylight
03 Mar - 08:43:53 10° WSW 09:03:28 67° NW 09:16:41 10° NE daylight
03 Mar - 11:07:41 10° W 11:18:26 22° NW 11:26:10 10° N daylight
03 Mar - 20:13:12 10° WNW 20:17:09 70° SSW 20:23:05 10° SE visible
03 Mar - 22:27:02 10° SW 22:30:42 15° SSW 22:35:29 10° SSE night (unlit)
